Weather History for Hailey, ID

Change the Weather History Date:

Sunday, January 19, 2014

  Actual Average Record
Temperature  
Mean Temperature 26 °F -  
Max Temperature 37 °F 34 °F 42 °F (2005)
Min Temperature 15 °F 14 °F 1 °F (2013)
Degree Days  
Heating Degree Days 39    
Moisture  
Dew Point 19 °F    
Average Humidity 78    
Maximum Humidity 86    
Minimum Humidity 56    
Precipitation  
Precipitation 0.00 in - - ()
Sea Level Pressure  
Sea Level Pressure 30.25 in    
Wind  
Wind Speed 7 mph (NW)    
Max Wind Speed 10 mph    
Max Gust Speed -    
Visibility 10 miles    
Events      
Averages and records for this station are not official NWS values.
T = Trace of Precipitation, MM = Missing Value Source: NWS Daily Summary

Daily Weather History Graph

Daily Weather History Graph

Search for Another Location

Airport:

Trip Planner

Search our weather history database for the weather conditions in past years. The results will help you decide how hot, cold, wet, or windy it might be!

Date:

Astronomy

Jan. 19, 2014 Rise Set
Actual Time 8:04 AM MST 5:31 PM MST
Civil Twilight 7:33 AM MST 6:03 PM MST
Nautical Twilight 6:58 AM MST 6:38 PM MST
Astronomical Twilight 6:24 AM MST 7:12 PM MST
Moon 9:21 PM MST (1/19) 9:29 AM MST (1/19)
Length of Visible Light 10h 29m
Length of Day
9h 26m
Waning Gibbous, 89% of the Moon is Illuminated
Jan 19
Waning Gibbous
Jan 23
Last Quarter
Jan 30
New
Feb 6
First Quarter
Feb 14
Full

Hourly Weather History & Observations

Time (MST) Temp. Windchill Dew Point Humidity Pressure Visibility Wind Dir Wind Speed Gust Speed Precip Events Conditions
12:15 AM 21.2 °F 12.6 °F 17.6 °F 86% 30.31 in 10.0 mi NNW 6.9 mph - N/A   Clear
12:35 AM 23.0 °F 13.1 °F 19.4 °F 86% 30.30 in 10.0 mi NNW 9.2 mph - N/A   Clear
12:55 AM 23.0 °F 13.9 °F 19.4 °F 86% 30.29 in 10.0 mi NNW 8.1 mph - N/A   Clear
1:15 AM 23.0 °F 13.9 °F 17.6 °F 80% 30.29 in 10.0 mi NW 8.1 mph - N/A   Clear
1:35 AM 23.0 °F 12.4 °F 17.6 °F 80% 30.28 in 10.0 mi NW 10.4 mph - N/A   Clear
1:55 AM 23.0 °F 13.1 °F 17.6 °F 80% 30.28 in 10.0 mi NW 9.2 mph - N/A   Clear
2:15 AM 23.0 °F 13.9 °F 17.6 °F 80% 30.28 in 10.0 mi NW 8.1 mph - N/A   Clear
2:35 AM 23.0 °F 12.4 °F 17.6 °F 80% 30.28 in 10.0 mi NW 10.4 mph - N/A   Clear
2:55 AM 21.2 °F 11.7 °F 17.6 °F 86% 30.28 in 10.0 mi NW 8.1 mph - N/A   Clear
3:15 AM 21.2 °F 11.7 °F 17.6 °F 86% 30.28 in 10.0 mi NNW 8.1 mph - N/A   Clear
3:35 AM 23.0 °F 12.4 °F 17.6 °F 80% 30.28 in 10.0 mi NW 10.4 mph - N/A   Clear
3:55 AM 23.0 °F 14.7 °F 17.6 °F 80% 30.28 in 10.0 mi NNW 6.9 mph - N/A   Clear
4:15 AM 23.0 °F 15.8 °F 17.6 °F 80% 30.28 in 10.0 mi NW 5.8 mph - N/A   Clear
4:35 AM 19.4 °F 9.5 °F 14.0 °F 80% 30.27 in 10.0 mi NW 8.1 mph - N/A   Clear
4:55 AM 21.2 °F 10.9 °F 15.8 °F 80% 30.26 in 10.0 mi NW 9.2 mph - N/A   Clear
5:15 AM 21.2 °F 12.6 °F 15.8 °F 80% 30.26 in 10.0 mi NW 6.9 mph - N/A   Clear
5:35 AM 21.2 °F 11.7 °F 15.8 °F 80% 30.26 in 10.0 mi NW 8.1 mph - N/A   Clear
5:55 AM 21.2 °F 10.9 °F 15.8 °F 80% 30.26 in 10.0 mi NW 9.2 mph - N/A   Clear
6:47 AM 17.6 °F 6.4 °F 14.0 °F 86% 30.26 in 10.0 mi West 9.2 mph - N/A   Clear
7:47 AM 19.4 °F 10.4 °F 14.0 °F 80% 30.26 in 10.0 mi WNW 6.9 mph - N/A   Partly Cloudy
8:47 AM 15.8 °F 7.2 °F 12.2 °F 86% 30.27 in 10.0 mi WNW 5.8 mph - N/A   Partly Cloudy
9:47 AM 19.4 °F - 15.8 °F 86% 30.27 in 10.0 mi Calm Calm - N/A   Partly Cloudy
10:47 AM 24.8 °F - 17.6 °F 74% 30.28 in 10.0 mi Calm Calm - N/A   Partly Cloudy
11:47 AM 30.2 °F 25.4 °F 19.4 °F 64% 30.26 in 10.0 mi WNW 4.6 mph - N/A   Partly Cloudy
12:47 PM 35.6 °F - 21.2 °F 56% 30.23 in 10.0 mi Calm Calm - N/A   Clear
1:50 PM 35.6 °F 28.6 °F 24.8 °F 65% 30.19 in 10.0 mi ESE 9.2 mph - N/A   Clear
2:47 PM 37.4 °F 30.8 °F 26.6 °F 65% 30.18 in 10.0 mi SE 9.2 mph - N/A   Clear
3:47 PM 37.4 °F 31.4 °F 26.6 °F 65% 30.18 in 10.0 mi SE 8.1 mph - N/A   Clear
4:47 PM 37.4 °F 32.8 °F 24.8 °F 60% 30.17 in 10.0 mi South 5.8 mph - N/A   Clear
5:47 PM 32.0 °F - 21.2 °F 64% 30.18 in 10.0 mi Calm Calm - N/A   Partly Cloudy
6:47 PM 28.4 °F 22.2 °F 21.2 °F 74% 30.19 in 10.0 mi NW 5.8 mph - N/A   Clear
7:55 PM 28.4 °F 23.3 °F 21.2 °F 74% 30.20 in 10.0 mi NW 4.6 mph - N/A   Clear
8:47 PM 26.6 °F 20.0 °F 21.2 °F 80% 30.47 in 10.0 mi NW 5.8 mph - N/A   Clear
9:47 PM 24.8 °F 19.1 °F 19.4 °F 80% 30.22 in 10.0 mi NW 4.6 mph - N/A   Clear
10:15 PM 26.6 °F 22.6 °F 21.2 °F 80% 30.22 in 10.0 mi NW 3.5 mph - N/A   Clear
10:35 PM 26.6 °F 21.2 °F 21.2 °F 80% 30.22 in 10.0 mi NNW 4.6 mph - N/A   Clear
10:47 PM 23.0 °F 17.0 °F 19.4 °F 86% 30.23 in 10.0 mi NW 4.6 mph - N/A   Clear
10:55 PM 24.8 °F 20.5 °F 19.4 °F 80% 30.23 in 10.0 mi North 3.5 mph - N/A   Clear
11:15 PM 26.6 °F - 21.2 °F 80% 30.24 in 10.0 mi Calm Calm - N/A   Clear
11:35 PM 24.8 °F 16.9 °F 21.2 °F 86% 30.24 in 10.0 mi NW 6.9 mph - N/A   Clear
11:55 PM 26.6 °F 18.2 °F 21.2 °F 80% 30.24 in 10.0 mi NW 8.1 mph - N/A   Clear